Weather History for KMYL - July, 2013

Change the Weather History Date:

Saturday, July 13, 2013

  Actual Average Record
Temperature  
Mean Temperature 60 °F 61 °F  
Max Temperature 76 °F 78 °F 100 °F (2002)
Min Temperature 44 °F 43 °F 31 °F (1943)
Degree Days  
Heating Degree Days 5 5  
Month to date heating degree days 11 82  
Since 1 June heating degree days 274 449  
Since 1 July heating degree days 11 82  
Cooling Degree Days 0 0  
Month to date cooling degree days 40 0  
Year to date cooling degree days 62 1  
Since 1 June cooling degree days 62 1  
Growing Degree Days 10 (Base 50)    
Moisture  
Dew Point 34 °F    
Average Humidity 47    
Maximum Humidity 76    
Minimum Humidity 17    
Precipitation  
Precipitation 0.00 in 0.01 in 0.76 in (1975)
Month to date precipitation T 0.41  
Year to date precipitation 11.25 12.05  
Sea Level Pressure  
Sea Level Pressure 29.99 in    
Wind  
Wind Speed 4 mph (NW)    
Max Wind Speed 12 mph    
Max Gust Speed 18 mph    
Visibility 10 miles    
Events      
T = Trace of Precipitation, MM = Missing Value Source: NWS Daily Summary

Daily Weather History Graph

Daily Weather History Graph

Search for Another Location

Airport or City:

Trip Planner

Search our weather history database for the weather conditions in past years. The results will help you decide how hot, cold, wet, or windy it might be!

Date:

Astronomy

Jul. 13, 2013 Rise Set
Actual Time 6:10 AM MDT 9:29 PM MDT
Civil Twilight 5:34 AM MDT 10:04 PM MDT
Nautical Twilight 4:48 AM MDT 10:51 PM MDT
Astronomical Twilight 3:49 AM MDT 11:49 PM MDT
Moon 11:47 AM MDT (7/13) 11:54 PM MDT (7/13)
Length of Visible Light 16h 30m
Length of Day
15h 18m
Waxing Crescent, 26% of the Moon is Illuminated
Jul 13
Waxing Crescent
Jul 15
First Quarter
Jul 22
Full
Jul 29
Last Quarter
Aug 6
New

Hourly Weather History & Observations

Time (MDT) Temp. Dew Point Humidity Pressure Visibility Wind Dir Wind Speed Gust Speed Precip Events Conditions
12:51 AM 57.0 °F 39.0 °F 51% 29.87 in 10.0 mi WSW 3.5 mph - N/A   Clear
1:51 AM 55.0 °F 37.0 °F 51% 29.89 in 10.0 mi Calm Calm - N/A   Clear
2:51 AM 52.0 °F 35.1 °F 53% 29.92 in 10.0 mi NW 4.6 mph - N/A   Clear
3:51 AM 55.9 °F 32.0 °F 40% 29.91 in 10.0 mi North 9.2 mph - N/A   Clear
4:51 AM 51.1 °F 36.0 °F 56% 29.94 in 10.0 mi Calm Calm - N/A   Clear
5:51 AM 46.0 °F 36.0 °F 68% 29.97 in 10.0 mi Calm Calm - N/A   Clear
6:51 AM 44.1 °F 37.9 °F 79% 29.99 in 10.0 mi Calm Calm - N/A   Clear
7:51 AM 51.1 °F 35.1 °F 54% 29.99 in 10.0 mi Calm Calm - N/A   Clear
8:51 AM 57.9 °F 35.1 °F 42% 30.00 in 10.0 mi Calm Calm - N/A   Clear
9:51 AM 61.0 °F 35.1 °F 38% 30.03 in 10.0 mi Calm Calm - N/A   Clear
10:51 AM 66.0 °F 37.0 °F 34% 30.02 in 10.0 mi NW 5.8 mph - N/A   Clear
11:51 AM 66.0 °F 34.0 °F 30% 30.04 in 10.0 mi Calm Calm - N/A   Clear
12:51 PM 70.0 °F 34.0 °F 27% 30.04 in 10.0 mi Variable 4.6 mph - N/A   Clear
1:51 PM 71.1 °F 33.1 °F 25% 30.04 in 10.0 mi Variable 3.5 mph - N/A   Clear
2:51 PM 73.9 °F 34.0 °F 23% 30.03 in 10.0 mi Variable 6.9 mph - N/A   Clear
3:51 PM 73.9 °F 34.0 °F 23% 30.01 in 10.0 mi NE 5.8 mph - N/A   Clear
4:51 PM 75.0 °F 32.0 °F 21% 30.02 in 10.0 mi North 5.8 mph - N/A   Clear
5:51 PM 75.0 °F 32.0 °F 21% 30.01 in 10.0 mi WNW 6.9 mph - N/A   Clear
6:51 PM 73.9 °F 28.0 °F 18% 30.02 in 10.0 mi WSW 3.5 mph - N/A   Clear
7:51 PM 73.9 °F 27.0 °F 18% 30.01 in 10.0 mi Calm Calm - N/A   Clear
8:51 PM 71.1 °F 28.0 °F 20% 30.00 in 10.0 mi West 4.6 mph - N/A   Clear
9:51 PM 64.9 °F 37.0 °F 36% 30.03 in 10.0 mi NW 4.6 mph - N/A   Clear
10:51 PM 63.0 °F 36.0 °F 37% 30.03 in 10.0 mi North 4.6 mph - N/A   Clear
11:51 PM 61.0 °F 35.1 °F 38% 30.04 in 10.0 mi North 5.8 mph - N/A   Clear